[[{"header":{"parameterUnit":"m.s-1","parameterCategory":1,"la1":30.2991,"la2":30.254,"lo1":-89.0895,"lo2":-89.0444,"dy":0.0017,"dx":0.0017,"nx":28,"ny":28,"refTime":"2025-07-22T21:00:00:Z","depth":0,"parameterNumber":2,"parameterNumberName":"U-component_of_WINDS"},"data":[0,0,0,0,0,0,0,0,0,0,0,0,0,0,0,0,0,0,0,0,0,0,0,0,0,0,0,0,0,0,0,0,0,0,0,0,0,0,0,0,0,0,0,0,0,0,0,0,0,0,0,0,0,0,0,0,0,0,1.0066,1.0065,0,0.995,0.9948,0.9947,0.9874,0.9874,0.9873,0.9873,0.9748,0.9745,0.9743,0,0,0,0,0,0,0,0,0,0,0,0,0,1.022,1.0218,1.0066,1.0065,1.0064,0.995,0.9948,0.9947,0.9874,0.9874,0.9873,0.9873,0.9749,0.9746,0.9742,0,0,0,0,0,0,0,0,0,0,0,0,0,1.0133,1.0217,1.0067,1.0014,1.0008,0.995,0.9948,0.9946,0.9874,0.9874,0.9873,0.9872,0.975,0.9746,0.9742,0.9726,0,0,0.9728,0.9726,0,0,0,0,0,0,0,0,1.0138,1.0128,1.0023,1.0017,1.0011,0.9926,0.9957,0.9872,0.9874,0.9925,0.9873,0.9872,0.9808,0.9798,0.9778,0.9721,0.9715,0.9728,0.9725,0.9723,0.9722,0,0,0,0,0,0,0,1.0144,1.0132,1.002,1.0021,1.0014,0.9994,0.9981,0.994,0.9871,0.992,0.9915,0.9902,0.9804,0.9782,0.9774,0.9713,0.9728,0.9724,0.9721,0.972,0.9635,0.9635,0,0,0,0,0,0,1.016,1.0138,1.0024,1.0017,1.0074,0.9991,0.9977,0.9954,0.9871,0.9858,0.9903,0.9899,0.979,0.9779,0.977,0.9744,0.9723,0.9719,0.9717,0.9634,0.9635,0.9635,0,0,0,0,0,0,1.0163,1.015,1.0028,1.0076,1.0059,0.999,0.9964,0.9952,0.993,0.9858,0.9845,0.9894,0.9789,0.9776,0.9737,0.9739,0.9717,0.9713,0.9634,0.9635,0.9635,0.9695,0,0,0,0,0,0,1.0168,1.0152,1.0147,1.0076,1.0057,1.0,0.9964,0.995,0.9923,0.9917,0.9846,0.9833,0.9788,0.9744,0.9733,0.9733,0.971,0.9633,0.9634,0.9635,0.9693,0.9698,0.9702,0,0,0,0,0,1.0174,1.0168,1.0147,1.0134,1.0049,1.0001,0.9989,0.9938,0.9924,0.9917,0.987,0.9836,0.9741,0.9741,0.9728,0.9726,0.9633,0.9634,0.9635,0.9691,0.9697,0.9702,0,0,0,0,0,0,1.0239,1.0158,1.0134,1.0105,1.0061,0.9989,0.9979,0.9947,0.9904,0.99,0.9837,0.9822,0.9789,0.9753,0.9755,0.9705,0.9683,0.9681,0.973,0.9735,0.974,0.9748,0.9706,0,0,0,0,0,1.0251,1.022,1.015,1.0131,1.011,1.0049,1.0026,0.999,0.9941,0.9921,0.9872,0.9824,0.9782,0.9757,0.9715,0.9687,0.9669,0.9679,0.9684,0.9688,0.9687,0.9667,0.967,0.9638,0.9638,0.9638,0,0,1.0273,1.0225,1.0209,1.0143,1.0104,1.0072,1.0033,1.0001,0.9975,0.9915,0.9876,0.9839,0.978,0.9747,0.9729,0.9716,0.9692,0.9689,0.9693,0.9689,0.9668,0.9671,0.9674,0.9639,0.9639,0.9639,0,0,1.0298,1.0259,1.0239,1.0201,1.0143,1.0102,1.0097,1.003,1.0002,0.9963,0.9916,0.9884,0.9816,0.9776,0.9746,0.9754,0.972,0.9742,0.9766,0.9748,0.975,0.9752,0.9753,0.9755,0.9742,0.9742,0.9742,0,1.0333,1.0284,1.0232,1.0202,1.0173,1.0119,1.0096,1.0061,0.9993,0.9973,0.9959,0.9871,0.9828,0.9783,0.9785,0.9764,0.9755,0.975,0.9755,0.9756,0.9757,0.9757,0.9758,0.9745,0.9744,0.9744,0.9744,0,1.0329,1.0296,1.0286,1.0222,1.0192,1.0166,1.0108,1.0083,1.005,1.001,0.9968,0.9915,0.9861,0.9848,0.9815,0.9797,0.9791,0.9767,0.9743,0.9764,0.9763,0.9762,0.9749,0.9748,0.9747,0.9746,0,0,1.0392,1.0299,1.0296,1.0266,1.0198,1.017,1.014,1.0089,1.0068,1.0022,0.9994,0.9937,0.9914,0.9881,0.9842,0.9826,0.9834,0.9804,0.9801,0.981,0.9809,0.9826,0.9828,0.9811,0.9811,0.9811,0.9813,0,1.0405,1.0352,1.0303,1.0266,1.0233,1.018,1.0154,1.0108,1.0069,1.0034,0.999,0.995,0.9924,0.9903,0.9885,0.9837,0.9832,0.9836,0.9782,0.9781,0.9797,0.9827,0.9846,0.9851,0.9812,0.9812,0.9812,0,1.0414,1.0371,1.0332,1.0265,1.0249,1.0227,1.0175,1.0143,1.0089,1.0061,1.0024,0.9984,0.9947,0.9928,0.9875,0.9879,0.9854,0.9827,0.9826,0.9817,0.9797,0.9818,0.9851,0.9852,0.9812,0.9812,0.9812,0,1.0462,1.0394,1.0361,1.0337,1.0259,1.0244,1.0211,1.0156,1.0128,1.0081,1.0062,1.0012,0.9984,0.9945,0.9891,0.9882,0.9843,0.982,0.9818,0.9819,0.9811,0.9812,0.9839,0.9797,0.9797,0.9797,0.9797,0,1.0481,1.0459,1.0382,1.0361,1.0333,1.0276,1.025,1.0211,1.0163,1.0132,1.0083,1.0055,0.9986,0.9949,0.9907,0.9868,0.9857,0.9832,0.982,0.9835,0.9838,0.9817,0.9815,0.9798,0.9797,0.9797,0.9797,0,1.053,1.0478,1.0438,1.0368,1.0349,1.0331,1.027,1.0247,1.0205,1.0167,1.0154,1.0088,1.0041,0.9984,0.9919,0.989,0.9856,0.984,0.9875,0.9868,0.9868,0.9869,0.9882,0.988,0.9841,0.9842,0.9842,0,1.0545,1.0527,1.0454,1.0431,1.0399,1.0363,1.0333,1.0276,1.0247,1.0183,1.0167,1.0117,1.0074,1.0002,0.9947,0.9896,0.9877,0.9885,0.9869,0.9884,0.9875,0.9877,0.9873,0.9889,0.989,0.9891,0.9891,0,1.0578,1.0552,1.0513,1.0465,1.0432,1.039,1.0346,1.033,1.0263,1.0232,1.0185,1.0152,1.0086,1.0036,0.9978,0.9941,0.9904,0.9897,0.9893,0.9908,0.9928,0.9915,0.9885,0.9896,0.9896,0.9895,0.9895,0.9895,1.0609,1.0589,1.0535,1.0492,1.0453,1.0413,1.0388,1.0343,1.0303,1.0246,1.0214,1.0167,1.011,1.0029,0.9993,0.9954,0.9941,0.9936,0.9934,0.9934,0.9938,0.9936,0.9943,0.9943,0.9943,0.9943,0.9942,0,1.0637,1.0599,1.0561,1.0502,1.0467,1.0438,1.0387,1.036,1.032,1.0272,1.023,1.0175,1.0126,1.0067,1.0013,0.9993,0.9975,0.9981,0.9981,0.9972,0.9954,0.9961,0.9996,0.9996,0.9996,0.9996,0.9996,0.9996,1.0648,1.0612,1.058,1.0524,1.0486,1.0441,1.0414,1.0376,1.0337,1.0278,1.0238,1.02,1.0146,1.0088,1.0041,1.0024,1.0006,1.0017,0.9996,0.9979,0.9974,0.997,0.9976,1.0014,1.0014,1.0017,1.0017,1.0017]},{"header":{"parameterUnit":"m.s-1","parameterCategory":1,"la1":30.2991,"la2":30.254,"lo1":-89.0895,"lo2":-89.0444,"dy":0.0017,"dx":0.0017,"nx":28,"ny":28,"refTime":"2025-07-22T21:00:00:Z","depth":0,"parameterNumber":3,"parameterNumberName":"V-component_of_WINDS"},"data":[0,0,0,0,0,0,0,0,0,0,0,0,0,0,0,0,0,0,0,0,0,0,0,0,0,0,0,0,0,0,0,0,0,0,0,0,0,0,0,0,0,0,0,0,0,0,0,0,0,0,0,0,0,0,0,0,0,0,-1.6586,-1.6588,0,-1.678,-1.6782,-1.6784,-1.6885,-1.6885,-1.6886,-1.6886,-1.7084,-1.7089,-1.7094,0,0,0,0,0,0,0,0,0,0,0,0,0,-1.6304,-1.6308,-1.6586,-1.6588,-1.659,-1.6779,-1.6782,-1.6785,-1.6885,-1.6885,-1.6886,-1.6886,-1.7082,-1.7089,-1.7095,0,0,0,0,0,0,0,0,0,0,0,0,0,-1.6455,-1.631,-1.6585,-1.6663,-1.6672,-1.6779,-1.6782,-1.6786,-1.6885,-1.6885,-1.6886,-1.6886,-1.708,-1.7088,-1.7096,-1.7139,0,0,-1.7119,-1.7123,0,0,0,0,0,0,0,0,-1.6446,-1.6465,-1.6649,-1.6658,-1.6668,-1.6809,-1.6756,-1.6904,-1.6885,-1.6804,-1.6886,-1.6886,-1.6992,-1.7007,-1.7043,-1.7148,-1.7157,-1.712,-1.7125,-1.7128,-1.713,0,0,0,0,0,0,0,-1.6435,-1.6457,-1.6663,-1.6652,-1.6664,-1.6689,-1.6711,-1.6784,-1.6895,-1.6811,-1.6819,-1.6841,-1.6998,-1.7035,-1.7049,-1.716,-1.712,-1.7127,-1.7131,-1.7134,-1.7313,-1.7313,0,0,0,0,0,0,-1.6412,-1.6448,-1.6656,-1.6668,-1.6555,-1.6694,-1.6718,-1.6763,-1.6894,-1.6914,-1.684,-1.6845,-1.7022,-1.7039,-1.7056,-1.7117,-1.7128,-1.7135,-1.714,-1.7313,-1.7313,-1.7313,0,0,0,0,0,0,-1.6406,-1.643,-1.6649,-1.656,-1.659,-1.6699,-1.6748,-1.6767,-1.6805,-1.6916,-1.6936,-1.6859,-1.7023,-1.7045,-1.7118,-1.7125,-1.7139,-1.7146,-1.7313,-1.7313,-1.7313,-1.7238,0,0,0,0,0,0,-1.6397,-1.6427,-1.6444,-1.656,-1.6594,-1.6707,-1.6749,-1.6771,-1.6818,-1.6826,-1.6939,-1.6958,-1.7025,-1.7106,-1.7126,-1.7136,-1.7152,-1.7313,-1.7313,-1.7313,-1.724,-1.7236,-1.7232,0,0,0,0,0,-1.6387,-1.6415,-1.6444,-1.6469,-1.6618,-1.6707,-1.6727,-1.6803,-1.6818,-1.6837,-1.6909,-1.6954,-1.7121,-1.7113,-1.7136,-1.7148,-1.7313,-1.7313,-1.7313,-1.7242,-1.7237,-1.7232,0,0,0,0,0,0,-1.6296,-1.6431,-1.6465,-1.6532,-1.6607,-1.6724,-1.6749,-1.6794,-1.6867,-1.6871,-1.6963,-1.6988,-1.7053,-1.7108,-1.7096,-1.7199,-1.7222,-1.7227,-1.716,-1.7156,-1.7151,-1.7136,-1.7158,0,0,0,0,0,-1.6284,-1.6344,-1.6459,-1.6507,-1.6543,-1.6639,-1.6681,-1.6734,-1.6816,-1.6848,-1.6925,-1.7003,-1.7073,-1.7117,-1.7188,-1.7249,-1.7276,-1.727,-1.7265,-1.7261,-1.7264,-1.7302,-1.7301,-1.7314,-1.7314,-1.7314,0,0,-1.6259,-1.634,-1.6373,-1.6491,-1.6555,-1.6617,-1.6665,-1.6728,-1.6775,-1.6858,-1.6932,-1.6991,-1.7084,-1.7152,-1.7185,-1.72,-1.7267,-1.7261,-1.7257,-1.7263,-1.7302,-1.7301,-1.73,-1.7314,-1.7314,-1.7314,0,0,-1.6245,-1.6312,-1.636,-1.6424,-1.6522,-1.6586,-1.6597,-1.6708,-1.6751,-1.6827,-1.6891,-1.6948,-1.7067,-1.7131,-1.7179,-1.7192,-1.7237,-1.7213,-1.7189,-1.7226,-1.7225,-1.7224,-1.723,-1.7231,-1.7215,-1.7215,-1.7215,0,-1.6201,-1.6296,-1.6378,-1.6438,-1.6488,-1.6567,-1.6617,-1.6675,-1.679,-1.6824,-1.6839,-1.6991,-1.7059,-1.7144,-1.7147,-1.7183,-1.72,-1.72,-1.7218,-1.7219,-1.7219,-1.7226,-1.7228,-1.7212,-1.7212,-1.7212,-1.7213,0,-1.6239,-1.6304,-1.633,-1.6441,-1.6495,-1.6548,-1.6639,-1.6684,-1.6733,-1.6796,-1.6873,-1.6958,-1.7048,-1.7072,-1.712,-1.7164,-1.7171,-1.72,-1.7225,-1.7213,-1.7221,-1.7224,-1.7207,-1.7208,-1.7209,-1.721,0,0,-1.6171,-1.6328,-1.6336,-1.6388,-1.6503,-1.6555,-1.6613,-1.6702,-1.6739,-1.6817,-1.6869,-1.6969,-1.6998,-1.7052,-1.7108,-1.714,-1.7147,-1.7167,-1.717,-1.7161,-1.7203,-1.7179,-1.7181,-1.7177,-1.7178,-1.7179,-1.7195,0,-1.6174,-1.6282,-1.6359,-1.6437,-1.6499,-1.6576,-1.6627,-1.6704,-1.6765,-1.6827,-1.6895,-1.6964,-1.6997,-1.703,-1.7065,-1.7138,-1.7156,-1.7138,-1.7227,-1.723,-1.7202,-1.7185,-1.716,-1.7171,-1.7198,-1.7199,-1.7199,0,-1.6191,-1.6267,-1.6351,-1.6462,-1.6491,-1.6535,-1.6624,-1.6682,-1.677,-1.6813,-1.6875,-1.6933,-1.6999,-1.7018,-1.7112,-1.7098,-1.7139,-1.7181,-1.7183,-1.7194,-1.7213,-1.7196,-1.7176,-1.7178,-1.7205,-1.7204,-1.7204,0,-1.6134,-1.6257,-1.6325,-1.6367,-1.6496,-1.6526,-1.6582,-1.6671,-1.672,-1.6798,-1.6831,-1.6915,-1.6961,-1.7025,-1.7105,-1.7112,-1.7191,-1.7216,-1.7228,-1.7226,-1.7241,-1.7239,-1.7228,-1.7267,-1.7267,-1.7267,-1.7267,0,-1.6128,-1.6177,-1.6301,-1.6342,-1.64,-1.6489,-1.6544,-1.6606,-1.6685,-1.6741,-1.6813,-1.6863,-1.6965,-1.7029,-1.7092,-1.716,-1.718,-1.7217,-1.7233,-1.7211,-1.7206,-1.7239,-1.724,-1.7268,-1.7267,-1.7267,-1.7267,0,-1.6073,-1.6158,-1.6237,-1.6354,-1.6385,-1.6422,-1.6523,-1.6567,-1.6633,-1.6703,-1.6724,-1.6827,-1.6906,-1.6993,-1.71,-1.7142,-1.7208,-1.723,-1.7177,-1.7187,-1.7194,-1.7192,-1.7204,-1.7211,-1.7244,-1.7243,-1.7243,0,-1.6064,-1.6104,-1.6226,-1.6269,-1.6322,-1.639,-1.6441,-1.653,-1.6581,-1.6686,-1.6718,-1.6802,-1.6874,-1.6997,-1.7082,-1.7165,-1.7191,-1.7189,-1.7204,-1.7181,-1.7192,-1.7189,-1.7194,-1.7185,-1.7184,-1.7183,-1.7183,0,-1.6039,-1.608,-1.615,-1.6236,-1.6295,-1.6367,-1.6442,-1.6473,-1.6578,-1.6631,-1.6713,-1.6769,-1.688,-1.6963,-1.7057,-1.7116,-1.7167,-1.7178,-1.7185,-1.7162,-1.713,-1.7149,-1.7166,-1.7177,-1.7177,-1.7178,-1.7178,-1.7178,-1.6007,-1.6047,-1.6139,-1.6216,-1.6283,-1.6352,-1.6399,-1.6472,-1.6541,-1.6639,-1.6688,-1.6769,-1.686,-1.6992,-1.7049,-1.7115,-1.7131,-1.7141,-1.7144,-1.7145,-1.714,-1.712,-1.7133,-1.7133,-1.7133,-1.7133,-1.7134,0,-1.5986,-1.605,-1.612,-1.6223,-1.6284,-1.6328,-1.6414,-1.6462,-1.6533,-1.6614,-1.6684,-1.6779,-1.6861,-1.6954,-1.7042,-1.7077,-1.7103,-1.7097,-1.7095,-1.7108,-1.712,-1.7105,-1.7075,-1.7075,-1.7075,-1.7075,-1.7075,-1.7075,-1.5982,-1.6052,-1.6104,-1.6208,-1.6273,-1.6353,-1.6399,-1.6463,-1.6528,-1.6631,-1.67,-1.676,-1.6846,-1.6942,-1.7019,-1.7045,-1.7074,-1.7061,-1.7093,-1.7102,-1.7107,-1.7112,-1.7098,-1.7067,-1.7067,-1.7077,-1.7077,-1.7077]}]]